[[{"header":{"parameterUnit":"m.s-1","parameterCategory":1,"la1":30.2991,"la2":30.254,"lo1":-89.0895,"lo2":-89.0444,"dy":0.0017,"dx":0.0017,"nx":28,"ny":28,"refTime":"2024-03-10T03:00:00:Z","depth":0,"parameterNumber":2,"parameterNumberName":"U-component_of_WINDS"},"data":[0,0,0,0,0,0,0,0,0,0,0,0,0,0,0,0,0,0,0,0,0,0,0,0,0,0,0,0,0,0,0,0,0,0,0,0,0,0,0,0,0,0,0,0,0,0,0,0,0,0,0,0,0,0,0,0,0,0,0.2424,0.2424,0,0.2366,0.2365,0.2364,0.2376,0.2377,0.2378,0.2379,0.2316,0.2313,0.231,0,0,0,0,0,0,0,0,0,0,0,0,0,0.2544,0.2541,0.2424,0.2424,0.2423,0.2366,0.2365,0.2364,0.2376,0.2377,0.2378,0.238,0.2316,0.2313,0.231,0,0,0,0,0,0,0,0,0,0,0,0,0,0.2489,0.2541,0.2425,0.2422,0.2421,0.2366,0.2365,0.2364,0.2376,0.2377,0.2379,0.238,0.2318,0.2314,0.231,0.2252,0,0,0.2297,0.2296,0,0,0,0,0,0,0,0,0.2492,0.2485,0.2423,0.2422,0.2421,0.238,0.2384,0.2327,0.2375,0.2393,0.2379,0.2381,0.2335,0.233,0.2315,0.2249,0.2247,0.2297,0.2294,0.2293,0.2292,0,0,0,0,0,0,0,0.2496,0.2487,0.2401,0.2422,0.2421,0.2423,0.2417,0.2373,0.2356,0.2391,0.2392,0.2385,0.2335,0.2319,0.2314,0.2246,0.2297,0.2293,0.2291,0.2289,0.213,0.2128,0,0,0,0,0,0,0.2501,0.249,0.2403,0.2399,0.2461,0.2419,0.2413,0.2391,0.2356,0.2352,0.2384,0.2386,0.2325,0.2319,0.2312,0.2242,0.2293,0.2289,0.2287,0.2132,0.2129,0.2127,0,0,0,0,0,0,0.2503,0.2493,0.2405,0.2445,0.2434,0.2416,0.2392,0.2389,0.2374,0.2351,0.2347,0.2371,0.2326,0.2317,0.2267,0.224,0.2287,0.2283,0.2134,0.2131,0.2128,0.2102,0,0,0,0,0,0,0.2507,0.2494,0.2472,0.2444,0.2432,0.2362,0.239,0.2387,0.2367,0.2369,0.2338,0.2334,0.2327,0.2273,0.2263,0.2235,0.228,0.2136,0.2133,0.2129,0.2105,0.2099,0.2093,0,0,0,0,0,0.2511,0.2466,0.2471,0.2461,0.2405,0.2361,0.2353,0.2348,0.2365,0.2342,0.2328,0.2335,0.2245,0.2268,0.2257,0.2227,0.2138,0.2134,0.213,0.2108,0.21,0.2093,0,0,0,0,0,0,0.249,0.2463,0.2468,0.2413,0.2389,0.2363,0.2334,0.2339,0.2309,0.2312,0.2305,0.2298,0.2247,0.2232,0.2258,0.217,0.2194,0.2187,0.2181,0.2173,0.2167,0.2171,0.2277,0,0,0,0,0,0.2479,0.2447,0.2425,0.2378,0.2366,0.2353,0.2333,0.2331,0.2306,0.2295,0.2277,0.2251,0.2217,0.2195,0.2162,0.2104,0.2097,0.2078,0.2072,0.2067,0.2061,0.2028,0.202,0.2114,0.2114,0.2114,0,0,0.2456,0.2437,0.2417,0.2374,0.2355,0.2321,0.2344,0.2306,0.228,0.2289,0.2241,0.2227,0.2198,0.2143,0.2118,0.2129,0.2034,0.2062,0.2058,0.2054,0.2023,0.2014,0.2006,0.2111,0.2112,0.2112,0,0,0.2396,0.2379,0.2338,0.232,0.2292,0.2284,0.2274,0.2247,0.2238,0.219,0.2196,0.2165,0.2107,0.2086,0.2067,0.2001,0.2006,0.1991,0.1958,0.1927,0.1919,0.1913,0.1888,0.1879,0.1985,0.1985,0.1985,0,0.237,0.2319,0.2317,0.2279,0.2259,0.2268,0.2226,0.2208,0.217,0.2156,0.217,0.2098,0.2079,0.2019,0.2003,0.1988,0.1976,0.1993,0.1921,0.1914,0.1908,0.1884,0.1875,0.1984,0.1984,0.1984,0.1984,0,0.2288,0.2253,0.2224,0.2189,0.2166,0.2126,0.2117,0.2095,0.2095,0.2085,0.2035,0.2014,0.1977,0.1963,0.1962,0.1903,0.1911,0.1923,0.1946,0.1897,0.1875,0.1866,0.1981,0.1982,0.1982,0.1983,0,0,0.221,0.2176,0.2165,0.2149,0.212,0.2092,0.2054,0.2019,0.1999,0.1974,0.194,0.1891,0.1903,0.1882,0.188,0.1852,0.18,0.1868,0.1867,0.1854,0.1732,0.1722,0.1711,0.1804,0.1803,0.1801,0.1734,0,0.2146,0.2078,0.2075,0.2013,0.198,0.1988,0.1954,0.1932,0.1922,0.1892,0.1881,0.1846,0.1865,0.1852,0.1826,0.1812,0.1775,0.1817,0.1771,0.1769,0.1776,0.17,0.1688,0.1626,0.1725,0.1724,0.1723,0,0.2061,0.2034,0.1969,0.1945,0.1931,0.1901,0.1869,0.1841,0.1816,0.1811,0.1789,0.1791,0.175,0.1777,0.172,0.1749,0.173,0.1721,0.1718,0.1712,0.1741,0.1689,0.1606,0.1596,0.1709,0.171,0.1711,0,0.2009,0.1957,0.1911,0.1897,0.1869,0.1847,0.1834,0.1811,0.1791,0.1763,0.1749,0.1717,0.1699,0.1674,0.1666,0.1687,0.1609,0.1636,0.1602,0.1602,0.1583,0.1584,0.1494,0.1575,0.1575,0.1575,0.1576,0,0.1936,0.1895,0.1887,0.1858,0.1813,0.1811,0.1765,0.1754,0.1734,0.1702,0.1708,0.1679,0.1672,0.1641,0.1635,0.1589,0.1581,0.1574,0.1573,0.1572,0.1573,0.1558,0.1561,0.1573,0.1573,0.1574,0.1574,0,0.1869,0.1862,0.1812,0.179,0.1783,0.1751,0.1731,0.1703,0.1696,0.1656,0.1646,0.1633,0.1597,0.1588,0.1545,0.1541,0.1485,0.1489,0.1493,0.1493,0.1459,0.1462,0.1354,0.134,0.1433,0.1432,0.1431,0,0.1821,0.179,0.1766,0.1746,0.1732,0.17,0.168,0.1677,0.1655,0.1626,0.1601,0.1566,0.1538,0.1479,0.1465,0.1432,0.1434,0.1398,0.1428,0.1429,0.1431,0.1432,0.1428,0.1392,0.1391,0.139,0.1389,0,0.1738,0.1736,0.1707,0.1677,0.1653,0.1629,0.1606,0.1589,0.1583,0.1559,0.1522,0.1501,0.1457,0.1422,0.1389,0.1375,0.138,0.1381,0.1371,0.1368,0.1372,0.1368,0.1476,0.1382,0.1383,0.1383,0.1384,0.1384,0.1677,0.165,0.1629,0.1596,0.1579,0.1558,0.1531,0.152,0.149,0.1455,0.1456,0.1416,0.1393,0.135,0.1334,0.1302,0.1313,0.1299,0.1295,0.1291,0.1287,0.1379,0.1296,0.1296,0.1297,0.1297,0.1297,0,0.1592,0.158,0.155,0.1519,0.1493,0.1503,0.1479,0.1456,0.1421,0.14,0.1373,0.1331,0.1297,0.1282,0.1248,0.1226,0.1227,0.1217,0.1217,0.1213,0.128,0.1291,0.1216,0.1216,0.1216,0.1216,0.1216,0.1216,0.1545,0.1499,0.1496,0.1442,0.1429,0.1391,0.1376,0.1356,0.1339,0.1293,0.1265,0.1256,0.1236,0.1202,0.1171,0.1167,0.1154,0.1141,0.1139,0.1201,0.1209,0.1216,0.1227,0.1139,0.1139,0.1074,0.1074,0.1073]},{"header":{"parameterUnit":"m.s-1","parameterCategory":1,"la1":30.2991,"la2":30.254,"lo1":-89.0895,"lo2":-89.0444,"dy":0.0017,"dx":0.0017,"nx":28,"ny":28,"refTime":"2024-03-10T03:00:00:Z","depth":0,"parameterNumber":3,"parameterNumberName":"V-component_of_WINDS"},"data":[0,0,0,0,0,0,0,0,0,0,0,0,0,0,0,0,0,0,0,0,0,0,0,0,0,0,0,0,0,0,0,0,0,0,0,0,0,0,0,0,0,0,0,0,0,0,0,0,0,0,0,0,0,0,0,0,0,0,-6.0168,-6.017,0,-6.0355,-6.0357,-6.0359,-6.0292,-6.0287,-6.0283,-6.0279,-6.0468,-6.0477,-6.0486,0,0,0,0,0,0,0,0,0,0,0,0,0,-5.975,-5.9759,-6.0168,-6.017,-6.0172,-6.0354,-6.0357,-6.0359,-6.0292,-6.0287,-6.0282,-6.0277,-6.0465,-6.0476,-6.0486,0,0,0,0,0,0,0,0,0,0,0,0,0,-5.9934,-5.9761,-6.0167,-6.0161,-6.0162,-6.0354,-6.0357,-6.036,-6.0293,-6.0287,-6.0281,-6.0275,-6.0462,-6.0475,-6.0488,-6.0696,0,0,-6.0529,-6.0535,0,0,0,0,0,0,0,0,-5.9924,-5.9949,-6.016,-6.0162,-6.0164,-6.0293,-6.0279,-6.0473,-6.0295,-6.0244,-6.0279,-6.0272,-6.0415,-6.0432,-6.0481,-6.0705,-6.0713,-6.053,-6.0538,-6.0544,-6.0548,0,0,0,0,0,0,0,-5.9911,-5.9941,-6.0242,-6.0163,-6.0165,-6.0148,-6.0167,-6.0315,-6.0362,-6.0248,-6.0243,-6.0266,-6.0415,-6.0468,-6.0484,-6.0716,-6.053,-6.0542,-6.055,-6.0555,-6.1121,-6.1127,0,0,0,0,0,0,-5.9898,-5.9931,-6.0236,-6.0247,-6.0026,-6.0161,-6.0182,-6.0258,-6.036,-6.037,-6.0271,-6.0262,-6.0448,-6.0469,-6.0491,-6.0742,-6.0544,-6.0556,-6.0564,-6.1114,-6.1122,-6.113,0,0,0,0,0,0,-5.9889,-5.9926,-6.0228,-6.0088,-6.0125,-6.0174,-6.026,-6.0265,-6.0318,-6.0378,-6.0386,-6.0317,-6.0444,-6.0472,-6.0646,-6.0748,-6.0562,-6.0575,-6.1105,-6.1116,-6.1126,-6.1246,0,0,0,0,0,0,-5.9877,-5.9923,-6.0003,-6.009,-6.0133,-6.0381,-6.0267,-6.0273,-6.0342,-6.0332,-6.0423,-6.0433,-6.0441,-6.0626,-6.0659,-6.0763,-6.0585,-6.1097,-6.111,-6.1123,-6.1233,-6.1259,-6.1281,0,0,0,0,0,-5.9863,-6.0029,-6.0008,-6.0045,-6.0235,-6.0387,-6.0412,-6.0419,-6.035,-6.0431,-6.047,-6.043,-6.0731,-6.0645,-6.0681,-6.079,-6.109,-6.1106,-6.1122,-6.1222,-6.1254,-6.1281,0,0,0,0,0,0,-5.9952,-6.004,-6.0018,-6.0217,-6.0295,-6.0376,-6.0478,-6.0452,-6.0551,-6.0537,-6.0541,-6.0562,-6.0742,-6.0783,-6.0685,-6.0997,-6.09,-6.0924,-6.0964,-6.0995,-6.1018,-6.1005,-6.0596,0,0,0,0,0,-5.9995,-6.0112,-6.0183,-6.0352,-6.0392,-6.0429,-6.0495,-6.0494,-6.0575,-6.0607,-6.0659,-6.0738,-6.085,-6.0924,-6.1031,-6.1238,-6.1257,-6.1331,-6.1355,-6.1374,-6.1395,-6.1508,-6.1542,-6.1181,-6.1181,-6.1181,0,0,-6.0084,-6.0147,-6.0221,-6.0371,-6.0432,-6.0553,-6.0457,-6.0589,-6.0679,-6.0627,-6.0795,-6.0836,-6.0924,-6.1115,-6.1202,-6.1155,-6.1499,-6.1394,-6.141,-6.142,-6.1528,-6.1562,-6.1592,-6.1192,-6.119,-6.1188,0,0,-6.031,-6.0369,-6.0517,-6.058,-6.0673,-6.0696,-6.0731,-6.0816,-6.0841,-6.101,-6.0974,-6.108,-6.1273,-6.1338,-6.1396,-6.1647,-6.1614,-6.1681,-6.1808,-6.1918,-6.1946,-6.1971,-6.2061,-6.2093,-6.1701,-6.1702,-6.1702,0,-6.041,-6.0592,-6.0596,-6.0732,-6.0799,-6.0758,-6.0908,-6.0968,-6.1091,-6.1138,-6.1083,-6.1326,-6.1382,-6.1589,-6.165,-6.1698,-6.1738,-6.1671,-6.1942,-6.1967,-6.199,-6.2076,-6.211,-6.1709,-6.1708,-6.1708,-6.1707,0,-6.071,-6.0837,-6.0945,-6.1066,-6.1144,-6.1286,-6.1311,-6.1391,-6.1382,-6.1411,-6.1583,-6.1649,-6.1769,-6.1817,-6.181,-6.2023,-6.1991,-6.194,-6.1842,-6.2032,-6.2113,-6.2146,-6.172,-6.1717,-6.1715,-6.1713,0,0,-6.0998,-6.112,-6.1159,-6.1214,-6.1313,-6.1411,-6.155,-6.1668,-6.1736,-6.1822,-6.1939,-6.2103,-6.2056,-6.2123,-6.2122,-6.2218,-6.2413,-6.2155,-6.2157,-6.2201,-6.2652,-6.2691,-6.2729,-6.2391,-6.2397,-6.2402,-6.2645,0,-6.1233,-6.1479,-6.1487,-6.1712,-6.1829,-6.1792,-6.1913,-6.1987,-6.2017,-6.212,-6.2152,-6.2269,-6.2198,-6.2238,-6.2331,-6.237,-6.2504,-6.2352,-6.25,-6.2505,-6.248,-6.2771,-6.2813,-6.3039,-6.2676,-6.2682,-6.2685,0,-6.154,-6.1636,-6.1873,-6.1956,-6.2005,-6.2115,-6.2223,-6.2322,-6.2405,-6.242,-6.2494,-6.2479,-6.2621,-6.2518,-6.2714,-6.261,-6.2671,-6.2699,-6.2708,-6.2723,-6.2608,-6.2795,-6.3111,-6.3146,-6.2735,-6.2731,-6.2727,0,-6.1727,-6.1916,-6.2083,-6.213,-6.2231,-6.2308,-6.2354,-6.243,-6.25,-6.2595,-6.2641,-6.275,-6.281,-6.2895,-6.291,-6.2834,-6.3106,-6.3004,-6.3122,-6.3122,-6.3183,-6.3179,-6.3514,-6.322,-6.3219,-6.3219,-6.3218,0,-6.1989,-6.2136,-6.2168,-6.2271,-6.2434,-6.244,-6.2601,-6.264,-6.2709,-6.2818,-6.2791,-6.2894,-6.2907,-6.3012,-6.3025,-6.3185,-6.3212,-6.3228,-6.323,-6.3231,-6.3229,-6.3272,-6.3257,-6.3228,-6.3226,-6.3224,-6.3222,0,-6.2227,-6.2255,-6.2434,-6.2514,-6.2538,-6.2654,-6.2723,-6.2821,-6.2847,-6.2986,-6.3018,-6.3061,-6.3184,-6.3207,-6.3352,-6.336,-6.3551,-6.3537,-6.3524,-6.3523,-6.364,-6.3629,-6.4015,-6.4067,-6.3738,-6.3741,-6.3744,0,-6.2393,-6.2505,-6.2598,-6.2669,-6.2719,-6.2834,-6.2906,-6.2916,-6.2992,-6.3095,-6.318,-6.3301,-6.3398,-6.3596,-6.3639,-6.375,-6.3738,-6.3866,-6.3755,-6.3753,-6.3742,-6.3735,-6.3747,-6.3888,-6.3891,-6.3894,-6.3896,0,-6.2685,-6.2693,-6.2798,-6.2909,-6.2996,-6.3083,-6.3165,-6.3225,-6.3246,-6.3333,-6.3459,-6.3535,-6.3683,-6.3803,-6.3913,-6.3958,-6.3932,-6.3931,-6.3964,-6.3968,-6.3957,-6.3965,-6.3584,-6.3922,-6.392,-6.3918,-6.3916,-6.3915,-6.2893,-6.2991,-6.3072,-6.319,-6.3253,-6.3331,-6.3427,-6.3466,-6.3572,-6.3694,-6.3693,-6.3832,-6.391,-6.4056,-6.4109,-6.4217,-6.4176,-6.4224,-6.4236,-6.4249,-6.426,-6.3938,-6.4236,-6.4236,-6.4235,-6.4234,-6.4234,0,-6.3184,-6.3234,-6.3343,-6.346,-6.3553,-6.3519,-6.3609,-6.3689,-6.3811,-6.3887,-6.3984,-6.4129,-6.4245,-6.4297,-6.4411,-6.4487,-6.4478,-6.4517,-6.4512,-6.4523,-6.4289,-6.425,-6.4523,-6.4523,-6.4523,-6.4523,-6.4523,-6.4523,-6.3347,-6.3511,-6.3529,-6.3724,-6.3773,-6.3909,-6.3963,-6.4035,-6.4096,-6.4259,-6.4356,-6.4389,-6.4456,-6.4575,-6.468,-6.4692,-6.4736,-6.4782,-6.4788,-6.4569,-6.454,-6.4512,-6.4475,-6.4791,-6.4791,-6.5013,-6.5015,-6.5017]}]]